Powrót do katalogu

IPERDRONE.0

AktywnyNaukaPO
NORAD 60520·PAYLOAD·🇮🇹 Italy

Wystrzelony Aug 16, 2024 z Vandenberg Space Force Base

Loading…

Następne Przeloty (najbliższe 24 godziny)

TLE

ŚwieżeSource: Space-Track

Epoka: Sep 14, 2026, 00:29 UTC

1 60520U 24149BE  26257.02053492  .00199150  00000-0  81399-3 0  9998
2 60520  97.3720 355.6772 0004491 250.4169 109.6617 15.85570591116894

Śledź IPERDRONE.0 w czasie rzeczywistym z AllMySat

Download on the App Store